NV6B Weather Reports


time (UTC)temp
C
wind
direction
speed
KPH
gust
KPH
rain 1hr
cm
rain 24hr
cm
rain mn
cm
humidity
%
barometer
mb
20260505184556 22 260 8.0 8.0 0.00 0.00 0.00 37 1004.9
20260505183556 22 303 3.2 6.4 0.00 0.00 0.00 37 1005.0
20260505182556 22 301 4.8 9.7 0.00 0.00 0.00 41 1005.1
20260505181556 22 231 1.6 11.3 0.00 0.00 0.00 38 1005.2
20260505180555 22 278 4.8 6.4 0.00 0.00 0.00 40 1005.3
20260505175555 22 247 3.2 12.9 0.00 0.00 0.00 38 1005.3
20260505174555 22 103 1.6 9.7 0.00 0.00 0.00 39 1005.2
20260505173555 21 186 6.4 8.0 0.00 0.00 0.00 41 1005.3
20260505172555 21 154 4.8 12.9 0.00 0.00 0.00 40 1005.3
20260505171555 21 147 8.0 14.5 0.00 0.00 0.00 42 1005.3
20260505170615 21 224 4.8 11.3 0.00 0.00 0.00 42 1005.2
20260505165555 20 231 4.8 12.9 0.00 0.00 0.00 41 1005.1
20260505164615 20 189 4.8 16.1 0.00 0.00 0.00 42 1005.2
20260505163555 20 202 3.2 12.9 0.00 0.00 0.00 44 1005.1
20260505162554 20 162 6.4 16.1 0.00 0.00 0.00 43 1005.1
20260505161554 19 166 6.4 16.1 0.00 0.00 0.00 45 1005.1
20260505160554 19 146 3.2 16.1 0.00 0.00 0.00 44 1004.9
20260505152554 18 162 4.8 20.9 0.00 0.00 0.00 47 1004.8
20260505121552 11 135 3.2 8.0 0.00 0.00 0.00 70 1002.1
20260505120552 12 303 0.0 0.0 0.00 0.00 0.00 67 1001.8
20260505115552 12 303 1.6 3.2 0.00 0.00 0.00 66 1001.6
20260505114552 12 303 1.6 3.2 0.00 0.00 0.00 66 1001.6
20260505113552 12 303 0.0 3.2 0.00 0.00 0.00 64 1001.4
20260505112551 13 303 3.2 4.8 0.00 0.00 0.00 63 1001.4
20260505111552 13 303 0.0 3.2 0.00 0.00 0.00 61 1001.3
20260505110551 14 303 1.6 3.2 0.00 0.00 0.00 60 1001.2
20260505041548 21 307 4.8 12.9 0.00 0.00 0.00 45 998.6
20260505014546 26 293 4.8 17.7 0.00 0.00 0.00 33 997.5
20260505013546 26 286 8.0 17.7 0.00 0.00 0.00 33 997.6
20260505012546 26 294 6.4 16.1 0.00 0.00 0.00 32 997.7
20260505011546 26 356 6.4 16.1 0.00 0.00 0.00 32 997.8
20260505010545 27 359 8.0 16.1 0.00 0.00 0.00 32 997.8
20260505005545 27 320 8.0 22.5 0.00 0.00 0.00 31 997.9
20260505004545 27 329 4.8 22.5 0.00 0.00 0.00 30 998.0
20260505003545 27 334 11.3 19.3 0.00 0.00 0.00 30 998.1
20260505002545 27 10 8.0 19.3 0.00 0.00 0.00 29 998.2
20260505001545 28 280 4.8 17.7 0.00 0.00 0.00 29 998.2
20260505000545 28 264 4.8 17.7 0.00 0.00 0.00 27 998.2
20260504235545 28 339 11.3 16.1 0.00 0.00 0.00 27 998.3
20260504234545 28 312 4.8 20.9 0.00 0.00 0.00 27 998.5
20260504233545 28 320 17.7 17.7 0.00 0.00 0.00 27 998.6
20260504232545 28 329 8.0 20.9 0.00 0.00 0.00 29 998.6
20260504231544 28 277 6.4 20.9 0.00 0.00 0.00 27 998.7
20260504201543 26 329 11.3 14.5 0.00 0.00 0.00 33 1001.1
20260504200543 26 283 4.8 14.5 0.00 0.00 0.00 36 1001.2
20260504195543 26 334 6.4 17.7 0.00 0.00 0.00 32 1001.4
20260504194543 26 314 8.0 16.1 0.00 0.00 0.00 37 1001.4